Location: Emblem
(62.4273°N, 6.4710°E)
Time: 20:04:09
(UTC+02:00)

Vanguard 2 - Pass Details

Date: 13 February 2023
Orbit: 553 x 2927 km, 32.9° (Epoch: 27 March)

Event Time Altitude Azimuth Distance (km) Brightness Sun altitude
Rises 22:31:46 0° 232° (SW) 4,965 11.7 -35.1°
Reaches altitude 10° 22:37:06 10° 210° (SSW) 4,470 11.2 -35.5°
Enters shadow 22:37:28 11° 208° (SSW) 4,457 11.2 -35.6°
Maximum altitude 22:42:41 14° 184° (S) 4,570 - -36.0°
Drops below altitude 10° 22:49:08 10° 158° (SSE) 5,319 - -36.4°
Sets 22:56:53 0° 139° (SE) 6,653 - -36.9°
